Waarnemingen

Advertentie
Mijn weer
Lille, Frankrijk (7015): temperatuur & dauwpunt: 23.04.2017 19:00:00 - 29.04.2017 19:00:00 (CEST)Lille, Frankrijk (7015): temperatuur 5cm: 23.04.2017 19:00:00 - 29.04.2017 19:00:00 (CEST)Lille, Frankrijk (7015): temperatuur -20cm & temperatuur -100cm: 23.04.2017 19:00:00 - 29.04.2017 19:00:00 (CEST)Lille, Frankrijk (7015): windsnelheid & windstoten: 23.04.2017 19:00:00 - 29.04.2017 19:00:00 (CEST)Lille, Frankrijk (7015): windrichting: 23.04.2017 19:00:00 - 29.04.2017 19:00:00 (CEST)Lille, Frankrijk (7015): luchtdruk: 23.04.2017 19:00:00 - 29.04.2017 19:00:00 (CEST)Lille, Frankrijk (7015): zicht: 23.04.2017 19:00:00 - 29.04.2017 19:00:00 (CEST)Lille, Frankrijk (7015): Zonneschijnduur: 23.04.2017 19:00:00 - 29.04.2017 19:00:00 (CEST)Lille, Frankrijk (7015): neerslag: 23.04.2017 19:00:00 - 29.04.2017 19:00:00 (CEST)
Datum & Tijd tt [°C] td [°C] tt 5cm [°C] tt -20cm [°C] tt -100cm [°C] ff [km/u] ff [kn] fx [km/u] fx [kn] dd ppp [hPa] vv [km] sd [min] rr [mm]
29.04.2017 19:00:00 14,8 0,6 15,7 12,6 10,5 13 7 29 16 OZO 1014,3 44 32 0,0
29.04.2017 18:00:00 15,0 1,5 16,7 12,4 10,5 16 9 27 15 O 1014,9 40 16 0,0
29.04.2017 17:00:00 15,1 1,6 16,5 12,2 10,5 16 8 26 14 ZO 1015,5 20 4 0,0
29.04.2017 16:00:00 14,9 1,1 17,4 11,8 10,5 9 5 23 13 O 1016,2 35 16 0,0
29.04.2017 15:00:00 14,4 1,6 16,6 11,4 10,5 10 5 21 11 ZO 1016,7 35 0 0,0
29.04.2017 14:00:00 14,3 3,1 16,6 10,8 10,5 5 3 23 12 ZZW 1017,0 28 42 0,0
29.04.2017 13:00:00 13,7 3,5 16,6 10,2 10,5 6 4 14 7 ZZW 1017,6 19 22 0,0
29.04.2017 12:00:00 12,0 2,7 12,7 9,8 10,5 5 3 13 7 Z 1018,1 20 0 0,0
29.04.2017 11:00:00 10,3 1,9 10,3 9,5 10,5 6 3 14 8 ZZW 1018,4 30 0 0,0
29.04.2017 10:00:00 8,9 2,5 8,9 9,3 10,5 8 4 13 7 ZW 1018,5 20 0 0,0
29.04.2017 09:00:00 8,1 2,3 7,6 9,2 10,5 6 3 11 6 ZZW 1018,4 20 0 0,0
29.04.2017 08:00:00 6,6 2,1 5,1 9,2 10,5 3 1 5 3 ZW 1018,2 20 0 0,0
29.04.2017 07:00:00 4,8 1,5 2,9 9,3 10,5 3 1 8 4 Z 1018,1 23 0 0,0
29.04.2017 06:00:00 3,7 0,9 1,0 9,4 10,5 5 3 6 3 ZZW 1018,1 18 0 0,0
29.04.2017 05:00:00 3,8 1,2 -0,8 9,7 10,5 2 1 4 2 ZO 1018,1 17 0 0,0
29.04.2017 04:00:00 3,9 1,1 0,0 9,9 10,5 0 0 4 2 N 1018,3 23 0 0,0
29.04.2017 03:00:00 4,7 1,2 0,0 10,2 10,5 0 0 3 2 N 1018,4 28 0 0,0
29.04.2017 02:00:00 6,2 1,5 4,8 10,3 10,5 0 0 4 2 N 1018,5 30 0 0,0
29.04.2017 01:00:00 6,2 1,5 4,3 10,5 10,5 0 0 5 3 N 1018,5 32 0 0,0
29.04.2017 00:00:00 6,3 0,8 4,0 10,7 10,5 0 0 3 2 N 1018,4 34 0 0,0
28.04.2017 23:00:00 6,3 0,4 0,7 11,0 10,5 0 0 8 4 N 1018,3 50 0 0,0
28.04.2017 22:00:00 7,9 0,1 2,1 11,4 10,5 6 4 13 7 N 1018,0 48 0 0,0
28.04.2017 21:00:00 9,1 0,5 6,9 11,7 10,5 7 4 16 9 N 1017,5 60 20 0,0
28.04.2017 20:00:00 11,0 0,1 11,4 11,8 10,5 13 7 24 13 NNW 1017,0 50 44 0,0
28.04.2017 19:00:00 11,8 -1,0 11,9 11,8 10,5 12 7 28 15 N 1016,9 47 34 0,0
28.04.2017 18:00:00 11,0 0,7 12,3 11,7 10,5 21 11 34 18 N 1016,7 54 17 0,0
28.04.2017 17:00:00 12,1 0,2 13,9 11,4 10,5 19 11 33 18 N 1016,4 31 34 0,0
28.04.2017 16:00:00 13,5 1,5 13,4 11,0 10,5 21 12 33 18 NW 1016,3 47 23 0,0
28.04.2017 15:00:00 12,1 0,8 14,4 10,7 10,5 18 10 32 17 NNW 1016,1 19 20 0,0
28.04.2017 14:00:00 11,3 2,1 12,2 10,4 10,5 22 12 34 18 NNW 1015,9 44 10 0,0
28.04.2017 13:00:00 11,5 0,9 13,3 10,1 10,5 20 11 35 19 NW 1015,6 41 13 0,0
28.04.2017 12:00:00 10,5 2,1 10,9 9,8 10,5 22 12 35 19 NNW 1015,7 51 13 0,0
28.04.2017 11:00:00 10,8 3,6 9,7 9,6 10,5 21 11 32 18 NNW 1015,6 37 15 0,0
28.04.2017 10:00:00 9,3 5,8 7,8 9,4 10,5 14 7 21 11 NW 1015,6 18 23 0,0
28.04.2017 09:00:00 7,3 5,9 6,6 9,4 10,5 10 5 17 9 NW 1015,4 7 0 0,4
28.04.2017 08:00:00 6,8 5,3 5,8 9,4 10,5 6 4 12 7 W 1015,1 7 1 0,0
28.04.2017 07:00:00 5,7 4,3 4,7 9,5 10,6 8 4 11 6 WZW 1015,1 7 0 0,0
28.04.2017 06:00:00 5,7 3,9 4,7 9,6 10,5 5 3 7 4 W 1015,2 9 0 0,0
28.04.2017 05:00:00 6,1 3,8 5,2 9,7 10,6 6 3 11 6 WZW 1015,5 11 0 0,0
28.04.2017 04:00:00 6,5 4,0 6,1 9,7 10,5 6 4 10 5 ZW 1015,5 15 0 0,0
28.04.2017 03:00:00 6,5 3,6 6,0 9,8 10,5 9 5 13 7 WZW 1015,9 15 0 0,0
28.04.2017 02:00:00 6,7 2,0 6,3 9,9 10,6 9 5 15 8 WZW 1016,2 22 0 0,0
28.04.2017 01:00:00 7,0 1,3 6,6 10,1 10,5 11 6 14 8 WZW 1016,5 25 0 0,0
28.04.2017 00:00:00 7,2 0,8 6,8 10,3 10,6 8 4 13 7 W 1016,8 29 0 0,0
27.04.2017 23:00:00 7,5 0,5 7,1 10,4 10,6 10 5 18 10 W 1017,2 28 0 0,0
27.04.2017 22:00:00 7,8 0,3 7,4 10,6 10,6 16 9 28 15 WNW 1017,5 27 0 0,0
27.04.2017 21:00:00 8,5 -0,3 8,2 10,8 10,6 16 9 27 15 WNW 1017,3 30 0 0,0
27.04.2017 20:00:00 8,8 -1,6 8,5 11,0 10,6 16 9 31 17 NW 1017,2 44 14 0,0
27.04.2017 19:00:00 10,7 -3,4 11,6 10,9 10,6 19 10 30 16 NW 1017,1 20 51 0,0
27.04.2017 18:00:00 10,3 -3,8 12,0 10,6 10,5 16 8 37 20 NNW 1017,2 35 48 0,0
27.04.2017 17:00:00 10,2 -1,8 11,4 10,4 10,6 10 6 37 20 NW 1017,7 41 4 0,0
27.04.2017 16:00:00 9,8 -2,5 11,3 10,3 10,6 15 8 37 20 NW 1017,8 47 4 0,0
27.04.2017 15:00:00 10,4 0,1 12,3 10,0 10,6 18 10 26 14 NNW 1018,2 41 8 0,0
27.04.2017 14:00:00 9,2 -1,5 10,3 9,7 10,6 19 10 36 19 NW 1018,5 29 8 0,0
27.04.2017 13:00:00 9,9 -0,3 11,1 9,2 10,6 19 11 33 18 WNW 1018,4 30 41 0,0
27.04.2017 12:00:00 9,0 0,2 9,5 8,8 10,6 17 9 28 15 NW 1018,8 51 28 0,0
27.04.2017 11:00:00 8,4 2,4 8,1 8,5 10,6 14 8 29 16 N 1018,9 38 21 0,0
27.04.2017 10:00:00 7,7 2,2 8,6 8,1 10,6 15 8 25 14 NNW 1019,0 56 46 0,0
27.04.2017 09:00:00 6,7 2,8 4,3 8,0 10,6 14 8 22 12 NNW 1018,8 59 54 0,0
27.04.2017 08:00:00 3,1 1,6 0,5 8,1 10,6 16 8 24 13 NW 1018,8 20 56 0,0
27.04.2017 07:00:00 1,2 0,3 -2,9 8,2 10,6 0 0 14 8 N 1018,4 24 4 0,0
27.04.2017 06:00:00 0,6 -0,7 -2,7 8,4 10,6 12 7 14 8 NW 1018,1 31 0 0,0
27.04.2017 05:00:00 1,2 -0,9 -1,3 8,6 10,6 13 7 16 9 NW 1018,0 33 0 0,0
27.04.2017 04:00:00 2,8 0,0 -0,9 8,8 10,6 9 5 16 9 N 1017,9 57 0 0,0
27.04.2017 03:00:00 3,2 0,3 0,6 9,0 10,6 11 6 19 10 NNW 1017,9 48 0 0,0
27.04.2017 02:00:00 3,1 0,3 0,2 9,2 10,6 10 6 14 7 NNW 1017,9 30 0 0,0
27.04.2017 01:00:00 3,1 0,0 0,5 9,5 10,6 6 3 12 7 NNW 1018,0 30 0 0,0
27.04.2017 00:00:00 3,8 0,1 0,6 9,7 10,6 9 5 14 8 NNW 1017,9 38 0 0,0
26.04.2017 23:00:00 4,7 -0,1 1,9 10,0 10,6 10 6 18 10 N 1017,4 52 0 0,0
26.04.2017 22:00:00 5,8 -0,1 4,2 10,3 10,6 13 7 30 16 N 1016,9 59 0 0,0
26.04.2017 21:00:00 6,8 0,2 5,6 10,6 10,6 19 11 37 20 N 1016,2 60 20 0,0
26.04.2017 20:00:00 8,5 -0,8 8,7 10,7 10,6 20 11 42 23 N 1015,7 34 46 0,0
26.04.2017 19:00:00 9,1 0,0 8,2 10,8 10,6 24 13 39 21 NNW 1015,1 36 47 0,0
26.04.2017 18:00:00 9,7 1,3 7,0 10,9 10,6 24 13 37 20 N 1014,9 36 23 0,0
26.04.2017 17:00:00 7,2 2,3 5,2 10,8 10,6 11 6 26 14 O 1015,0 19 4 0,6
26.04.2017 16:00:00 10,9 3,0 11,3 10,4 10,6 18 10 37 20 ONO 1014,7 19 47 0,0
26.04.2017 15:00:00 8,9 1,8 6,4 10,1 10,6 12 7 28 15 N 1014,7 19 28 0,0
26.04.2017 14:00:00 5,4 2,0 5,0 10,1 10,6 20 11 45 24 NNW 1014,9 7 6 1,0
26.04.2017 13:00:00 8,2 0,4 10,1 9,7 10,6 13 7 29 15 N 1014,5 38 18 0,0
26.04.2017 12:00:00 8,3 1,2 10,8 9,3 10,6 11 6 23 12 NNW 1014,3 41 40 0,0
26.04.2017 11:00:00 7,0 1,3 7,9 9,0 10,6 11 6 22 12 NNW 1014,4 15 26 0,0
26.04.2017 10:00:00 5,6 2,1 6,1 8,9 10,6 16 8 29 16 NNW 1014,3 51 2 0,2
26.04.2017 09:00:00 5,3 2,3 4,4 8,7 10,6 15 8 21 12 NW 1013,9 48 34 0,0
26.04.2017 08:00:00 3,4 2,1 0,1 8,8 10,6 10 6 14 8 WNW 1013,5 26 35 0,0
26.04.2017 07:00:00 1,2 0,3 -1,7 9,0 10,6 6 3 10 6 WNW 1013,2 14 0 0,0
26.04.2017 06:00:00 1,7 0,2 0,4 9,1 10,6 10 5 16 9 WNW 1012,9 18 0 0,0
26.04.2017 05:00:00 2,8 1,0 1,5 9,2 10,6 9 5 18 10 NW 1013,0 12 0 0,0
26.04.2017 04:00:00 2,7 0,8 1,5 9,4 10,6 12 7 20 11 WNW 1013,1 28 0 0,0
26.04.2017 03:00:00 3,3 0,5 2,4 9,6 10,6 14 8 26 14 WNW 1013,1 30 0 0,0
26.04.2017 02:00:00 3,0 -0,8 0,0 9,8 10,6 13 7 16 9 NW 1013,0 33 0 0,0
26.04.2017 01:00:00 2,5 -3,0 -1,1 10,1 10,6 14 7 19 10 WNW 1013,0 39 0 0,0
26.04.2017 00:00:00 3,0 -3,8 -3,6 10,5 10,6 5 3 6 3 ZZW 1012,6 51 0 0,0
25.04.2017 23:00:00 4,1 -3,9 -1,8 10,8 10,6 4 2 13 7 NNW 1012,5 59 0 0,0
25.04.2017 22:00:00 5,6 -4,3 2,5 11,2 10,6 10 5 19 10 N 1012,6 60 0 0,0
25.04.2017 21:00:00 6,8 -5,6 5,2 11,5 10,6 15 8 29 16 N 1012,2 60 20 0,0
25.04.2017 20:00:00 8,4 -6,6 10,0 11,7 10,6 16 9 32 17 N 1012,1 33 60 0,0
25.04.2017 19:00:00 8,6 -4,3 10,7 11,8 10,6 19 11 34 19 N 1012,1 36 60 0,0
25.04.2017 18:00:00 9,5 -3,1 10,4 11,8 10,6 24 13 35 19 NNW 1012,1 42 37 0,0
25.04.2017 17:00:00 10,3 -2,1 10,6 11,7 10,6 22 12 34 19 NNW 1012,1 53 28 0,0
25.04.2017 16:00:00 10,8 -1,9 12,3 11,4 10,5 20 11 37 20 N 1012,1 41 29 0,0
25.04.2017 15:00:00 11,0 -0,2 11,1 11,1 10,6 20 11 40 22 NNW 1012,0 45 38 0,0
25.04.2017 14:00:00 10,1 -1,0 12,2 10,6 10,5 22 12 41 22 NNW 1012,2 20 53 0,0
25.04.2017 13:00:00 9,8 -0,1 10,4 10,2 10,5 21 11 43 23 NNW 1012,3 29 45 0,0
25.04.2017 12:00:00 8,8 0,2 9,1 10,0 10,6 24 13 40 22 NNW 1012,3 34 42 0,0
25.04.2017 11:00:00 7,2 -1,8 8,4 9,7 10,6 29 16 44 24 NW 1012,3 43 37 0,0
25.04.2017 10:00:00 7,4 -0,3 10,0 9,6 10,6 24 13 39 21 NW 1012,1 27 58 0,0
25.04.2017 09:00:00 5,7 -0,8 6,0 9,7 10,6 19 11 31 17 WNW 1012,0 41 60 0,0
25.04.2017 08:00:00 3,7 -1,1 3,6 9,9 10,6 12 7 19 10 WNW 1011,6 51 5 0,0
25.04.2017 07:00:00 4,2 -0,8 3,7 10,1 10,6 15 8 29 16 WNW 1011,0 45 0 0,0
25.04.2017 06:00:00 5,0 -1,7 4,3 10,4 10,6 20 11 41 22 NW 1010,6 52 0 0,0
25.04.2017 05:00:00 6,0 -0,5 5,4 10,6 10,6 21 12 42 23 NNW 1010,3 55 0 0,0
25.04.2017 04:00:00 6,8 0,2 6,1 10,8 10,6 20 11 44 24 NNW 1010,0 59 0 0,0
25.04.2017 03:00:00 7,7 5,5 7,2 11,0 10,6 19 10 29 15 NW 1009,7 28 0 0,0
25.04.2017 02:00:00 7,8 6,3 7,2 11,1 10,6 9 5 31 17 WNW 1010,0 22 0 0,4
25.04.2017 01:00:00 8,2 6,2 7,9 11,3 10,6 16 9 37 20 N 1010,3 19 0 0,0
25.04.2017 00:00:00 10,3 6,8 9,7 11,4 10,6 23 12 38 21 WNW 1009,9 34 0 0,0
24.04.2017 23:00:00 10,9 6,0 10,5 11,6 10,6 16 9 29 16 W 1010,2 31 0 0,0
24.04.2017 22:00:00 11,2 5,5 10,8 11,8 10,6 18 10 31 17 W 1010,7 28 0 0,0
24.04.2017 21:00:00 11,9 5,3 11,5 11,9 10,6 19 10 32 17 W 1011,0 28 0 0,0
24.04.2017 20:00:00 13,1 4,0 13,0 12,0 10,6 24 13 32 17 W 1011,4 47 1 0,0
24.04.2017 19:00:00 14,5 3,9 15,5 12,0 10,6 20 11 31 17 W 1011,8 39 46 0,0
24.04.2017 18:00:00 14,5 3,9 14,8 11,9 10,6 22 12 35 19 W 1012,5 35 2 0,0
24.04.2017 17:00:00 14,2 4,5 15,0 11,8 10,6 19 11 29 16 WNW 1013,1 32 0 0,0
24.04.2017 16:00:00 14,1 3,5 15,3 11,5 10,5 21 11 35 19 WNW 1013,9 20 2 0,0
24.04.2017 15:00:00 15,1 4,2 15,8 11,2 10,6 21 11 34 18 WNW 1014,7 19 13 0,0
24.04.2017 14:00:00 14,6 3,4 16,1 10,8 10,6 15 8 26 14 W 1015,7 35 7 0,0
24.04.2017 13:00:00 14,9 2,7 18,3 10,1 10,5 16 9 28 15 W 1016,5 19 49 0,0
24.04.2017 12:00:00 13,4 2,3 14,4 9,6 10,6 15 8 30 16 WZW 1017,3 20 38 0,0
24.04.2017 11:00:00 11,4 0,5 12,1 9,2 10,6 18 10 27 15 WZW 1018,1 20 2 0,0
24.04.2017 10:00:00 10,6 0,3 10,4 8,9 10,6 16 9 24 13 ZW 1018,4 32 2 0,0
24.04.2017 09:00:00 9,0 -0,3 6,5 8,8 10,6 14 8 19 10 ZZW 1019,1 44 1 0,0
24.04.2017 08:00:00 4,7 0,8 2,2 8,8 10,6 6 4 9 5 Z 1019,5 27 12 0,0
24.04.2017 07:00:00 2,5 -0,9 -2,4 8,9 10,6 6 3 8 4 Z 1019,8 22 0 0,0
24.04.2017 06:00:00 2,2 -0,7 -2,4 9,1 10,6 0 0 3 2 N 1020,1 21 0 0,0
24.04.2017 05:00:00 2,7 -0,4 -2,5 9,4 10,6 0 0 3 1 N 1020,7 24 0 0,0
24.04.2017 04:00:00 2,9 -0,4 -2,3 9,6 10,6 0 0 4 2 N 1021,3 23 0 0,0
24.04.2017 03:00:00 3,0 0,1 -2,2 9,9 10,6 2 1 3 2 ZZW 1021,9 20 0 0,0
24.04.2017 02:00:00 4,0 0,1 -1,7 10,2 10,6 0 0 0 0 N 1022,6 25 0 0,0
24.04.2017 01:00:00 4,5 0,1 -1,3 10,5 10,6 0 0 0 0 N 1023,4 29 0 0,0
24.04.2017 00:00:00 6,0 0,1 0,6 10,8 10,6 0 0 0 0 N 1023,8 18 0 0,0
23.04.2017 23:00:00 6,7 -0,1 0,5 11,2 10,6 0 0 5 3 N 1024,2 41 0 0,0
23.04.2017 22:00:00 8,1 -0,2 1,3 11,5 10,6 5 3 8 5 O 1024,6 60 0 0,0
23.04.2017 21:00:00 9,9 0,2 8,2 11,7 10,6 7 4 11 6 OZO 1024,6 60 7 0,0
23.04.2017 20:00:00 11,6 0,1 11,8 11,8 10,6 7 4 19 10 O 1024,6 60 21 0,0
23.04.2017 19:00:00 12,7 -0,2 13,2 11,9 10,6 9 5 16 9 ONO 1024,8 48 12 0,0

tt = temperatuur
td = dauwpunt
tt 5cm = temperatuur 5cm
tt -20cm = temperatuur -20cm
tt -100cm = temperatuur -100cm
ff = windsnelheid
fx = windstoten
dd = windrichting
ppp = luchtdruk
vv = zicht
sd = Zonneschijnduur
rr = neerslag

Weerstations in de omgeving